Washington State Current Weather Observations

 
 ASUS46 KSEW 172010
 RWRWA 
 
 WASHINGTON REGIONAL WEATHER ROUNDUP
 NATIONAL WEATHER SERVICE SEATTLE WA
 100 PM PDT WED OCT 17 2018
 
 NOTE:"FAIR" INDICATES FEW OR NO CLOUDS BELOW 12,000 FEET WITH NO 
 SIGNIFICANT WEATHER AND/OR OBSTRUCTIONS TO VISIBILITY.
 
 WAZ507-509-555>559-172100-
 SEATTLE, TACOMA, EVERETT, AND VICINITY
   
 CITY           SKY/WX    TMP DP  RH WIND       PRES   REMARKS
 EVERETT        SUNNY     66  46  48 SW5       30.18F                  
 BOEING FIELD   MOSUNNY   63  46  54 CALM      30.17F                  
 RENTON         SUNNY     61  47  59 N5        30.17F                  
 SEATAC AIRPORT MOSUNNY   65  50  58 W5        30.17F                  
 JBLM-MCCHORD   SUNNY     64  54  70 CALM      30.17F                  
 PUYALLUP       FAIR      68  48  49 CALM      30.17F                  
 BREMERTON      SUNNY     70  43  37 N5        30.17F                  
 JBLM-FT LEWIS  SUNNY     64  50  61 CALM      30.16F                  
 TACOMA NARROWS SUNNY     60  48  64 NE3       30.17F                  
 
WAZ001-503-506-510-514-515-172100- NORTH INTERIOR CITY SKY/WX TMP DP RH WIND PRES REMARKS BELLINGHAM SUNNY 67 44 43 CALM 30.17F FRIDAY HARBOR SUNNY 66 44 45 CALM 30.19F EASTSOUND SUNNY 55 50 82 NW5 30.18F PORT ANGELES SUNNY 59 45 59 E6 30.19S EDIZ HOOK FAIR 53 47 79 CALM 30.18F PORT TOWNSEND FAIR 61 48 63 SW6 30.16F NAS WHIDBEY MOSUNNY 60 47 61 NW6 30.22F ARLINGTON SUNNY 68 47 46 CALM 30.17F BURLINGTON SUNNY 64 46 52 CALM 30.17F
WAZ020-022-039-040-504-511-512-172100- SOUTHWEST INTERIOR CITY SKY/WX TMP DP RH WIND PRES REMARKS SHELTON SUNNY 65 47 52 SE3 30.15F OLYMPIA SUNNY 62 48 60 CALM 30.17F CHEHALIS FAIR 64 50 59 N3 30.16F KELSO HAZE 66 45 45 CALM 30.15F VSB 1/4 VANCOUVER SUNNY 68 39 34 W7 30.14F SCAPPOOSE, OR SUNNY 73 36 25 CALM 30.14F PORTLAND, OR MOSUNNY 69 40 34 CALM 30.15F
WAZ021-516-517-172100- WASHINGTON COAST CITY SKY/WX TMP DP RH WIND PRES REMARKS FORKS SUNNY 71 45 39 CALM 30.14F HOQUIAM SUNNY 67 51 56 E12 30.13F ASTORIA, OR SUNNY 72 47 40 NE7 30.11F
WAZ019-023-024-040-567>569-172100- CASCADE MOUNTAINS AND COLUMBIA GORGE CITY SKY/WX TMP DP RH WIND PRES REMARKS STAMPEDE PASS SUNNY 57 29 34 VRB3 30.28F TROUTDALE, OR SUNNY 69 37 30 E21G30 30.14F HOOD RIVER, OR CLEAR 64 34 32 NE3 30.25F THE DALLES, OR SUNNY 60 35 39 CALM 30.27F
WAZ026-027-041>044-520-521-172100- EAST SLOPES CITY SKY/WX TMP DP RH WIND PRES REMARKS OMAK SUNNY 57 37 47 SE3 30.29F WENATCHEE SUNNY 57 34 41 CALM 30.28F ELLENSBURG SUNNY 61 35 37 CALM 30.28F YAKIMA SUNNY 63 33 32 CALM 30.27F SUNNYSIDE ARPT CLEAR 60 38 44 CALM 30.28F HAZE
WAZ028-034-035-172100- COLUMBIA BASIN CITY SKY/WX TMP DP RH WIND PRES REMARKS EPHRATA SUNNY 62 32 32 E5 30.28F MOSES LAKE SUNNY 63 35 35 VRB3 30.28F PASCO SUNNY 57 37 47 NW5 30.31F RICHLAND ARPT CLEAR 58 38 47 CALM 30.30F HERMISTON, OR SUNNY 59 36 42 VRB3 30.28F
WAZ036>038-172100- NORTHEAST WASHINGTON CITY SKY/WX TMP DP RH WIND PRES REMARKS SPOKANE GEIGER MOSUNNY 56 35 45 NE5 30.29F SPOKANE FELTS SUNNY 58 36 43 CALM 30.29F FAIRCHILD AFB SUNNY 56 33 41 E3 30.28F COEURDALENE,ID SUNNY 59 36 42 NE8 30.29F DEER PARK SUNNY 59 35 40 VRB5 30.29F
WAZ029>033-172100- SOUTHEAST WASHINGTON CITY SKY/WX TMP DP RH WIND PRES REMARKS PULLMAN SUNNY 63 33 32 S6 30.29F LEWISTON, ID SUNNY 57 35 43 W5 30.28F WALLA WALLA SUNNY 56 34 43 W6 30.29F PENDLETON, OR SUNNY 59 35 40 N9 30.27F

Data from: http://www.wrh.noaa.gov/sew/get.php?pil=RWR&sid=WA&version=0&format=printer

Current Observations

Current Weather Conditions by Major Highway
Washington State Current Weather Observations   …  Oregon State Current Weather Observation



48 Hour Forecast


Seattle  …  Vancouver  …  Portland
————————————————————————————————————————
Bend  …  Spokane  …  Richland  …  Pendleton  …  Blue Mountains I-84  …  Yakima
————————————————————————————————————————
Goldendale, Washington Higher Elevations  …  Dallesport Airport - Goldendale  …  Bingen - White Salmon - Hood River  …  Index





Top of Page